[[{"header":{"parameterUnit":"m.s-1","parameterCategory":1,"la1":30.2991,"la2":30.254,"lo1":-89.0895,"lo2":-89.0444,"dy":0.0017,"dx":0.0017,"nx":28,"ny":28,"refTime":"2025-07-22T03:00:00:Z","depth":0,"parameterNumber":2,"parameterNumberName":"U-component_of_WINDS"},"data":[0,0,0,0,0,0,0,0,0,0,0,0,0,0,0,0,0,0,0,0,0,0,0,0,0,0,0,0,0,0,0,0,0,0,0,0,0,0,0,0,0,0,0,0,0,0,0,0,0,0,0,0,0,0,0,0,0,0,2.4518,2.4519,0,2.4631,2.4632,2.4633,2.461,2.4608,2.4606,2.4604,2.4726,2.4731,2.4736,0,0,0,0,0,0,0,0,0,0,0,0,0,2.4289,2.4293,2.4518,2.4519,2.4521,2.4631,2.4632,2.4634,2.461,2.4608,2.4605,2.4603,2.4724,2.473,2.4736,0,0,0,0,0,0,0,0,0,0,0,0,0,2.4394,2.4295,2.4518,2.4522,2.4524,2.463,2.4632,2.4634,2.4611,2.4608,2.4605,2.4602,2.4722,2.473,2.4737,2.4848,0,0,2.4761,2.4764,0,0,0,0,0,0,0,0,2.4388,2.4402,2.452,2.4522,2.4524,2.4603,2.4596,2.4706,2.4612,2.4578,2.4604,2.46,2.4688,2.4698,2.4727,2.4854,2.4859,2.4762,2.4766,2.477,2.4772,0,0,0,0,0,0,0,2.4381,2.4397,2.4563,2.4522,2.4524,2.4521,2.4532,2.4617,2.465,2.4581,2.4579,2.4593,2.4688,2.4719,2.4729,2.4861,2.4762,2.4768,2.4773,2.4776,2.5086,2.509,0,0,0,0,0,0,2.4371,2.4391,2.4559,2.4566,2.4447,2.4527,2.454,2.4581,2.4648,2.4655,2.4595,2.4591,2.4707,2.472,2.4733,2.4868,2.477,2.4777,2.4782,2.5083,2.5087,2.5091,0,0,0,0,0,0,2.4366,2.4386,2.4555,2.4479,2.45,2.4535,2.4581,2.4585,2.4615,2.4659,2.4666,2.462,2.4705,2.4722,2.482,2.4872,2.4781,2.4788,2.5078,2.5084,2.5089,2.5138,0,0,0,0,0,0,2.4359,2.4384,2.4425,2.4479,2.4504,2.4637,2.4584,2.4589,2.4628,2.4624,2.4684,2.4691,2.4704,2.4808,2.4827,2.4881,2.4794,2.5074,2.5081,2.5087,2.5132,2.5144,2.5155,0,0,0,0,0,2.4351,2.4436,2.4428,2.4448,2.4555,2.464,2.4654,2.4665,2.4632,2.4675,2.4703,2.4689,2.4863,2.4818,2.484,2.4896,2.5071,2.5079,2.5087,2.5126,2.5142,2.5154,0,0,0,0,0,0,2.4389,2.4443,2.4434,2.4539,2.4585,2.4636,2.469,2.4681,2.4739,2.4733,2.4747,2.4761,2.4859,2.4888,2.4837,2.5008,2.4962,2.4975,2.4985,2.5,2.5011,2.5002,2.48,0,0,0,0,0,2.4409,2.4471,2.4516,2.4604,2.4627,2.4655,2.4692,2.4697,2.4746,2.4766,2.4801,2.4851,2.4917,2.496,2.5023,2.5136,2.5149,2.5186,2.5197,2.5206,2.5217,2.5279,2.5296,2.5117,2.5117,2.5117,0,0,2.4452,2.4489,2.4528,2.4612,2.4649,2.4715,2.4671,2.4743,2.4793,2.4778,2.487,2.4899,2.4956,2.5061,2.5109,2.5088,2.527,2.5217,2.5224,2.5229,2.5289,2.5306,2.5321,2.5122,2.5122,2.5121,0,0,2.4563,2.4598,2.4674,2.4711,2.4766,2.4784,2.4802,2.4855,2.4872,2.4966,2.4956,2.5016,2.5129,2.517,2.5206,2.5333,2.5323,2.5354,2.5414,2.5474,2.5488,2.5501,2.5547,2.5563,2.5365,2.5365,2.5365,0,2.461,2.4707,2.4715,2.4788,2.4826,2.4813,2.4892,2.4928,2.5002,2.5029,2.5004,2.5145,2.5183,2.5297,2.5328,2.5358,2.538,2.5347,2.5485,2.5498,2.551,2.5554,2.5571,2.5368,2.5368,2.5367,2.5367,0,2.4762,2.483,2.4886,2.4954,2.4999,2.5074,2.5096,2.514,2.5141,2.5162,2.5258,2.5303,2.5375,2.5403,2.5405,2.5518,2.5503,2.5482,2.5436,2.553,2.5571,2.5588,2.5373,2.5372,2.5371,2.537,0,0,2.49,2.4972,2.4992,2.5024,2.5084,2.5137,2.5213,2.5281,2.5319,2.5371,2.5435,2.5531,2.5512,2.5552,2.5559,2.5612,2.5711,2.5585,2.5586,2.5606,2.5838,2.5853,2.5873,2.5704,2.5708,2.571,2.5833,0,2.5016,2.5147,2.5157,2.5276,2.5339,2.5328,2.5395,2.544,2.5462,2.552,2.5546,2.5613,2.5582,2.5606,2.5658,2.5688,2.5757,2.5679,2.5766,2.5769,2.5751,2.5894,2.5911,2.6024,2.585,2.5852,2.5854,0,2.5169,2.5223,2.5348,2.5399,2.5426,2.5485,2.5548,2.5604,2.5655,2.5668,2.5713,2.5713,2.5793,2.5745,2.5856,2.5802,2.5839,2.5859,2.5863,2.5872,2.5817,2.5906,2.6061,2.6078,2.588,2.5878,2.5876,0,2.5257,2.5361,2.5449,2.5476,2.5538,2.558,2.5608,2.5656,2.5697,2.5753,2.578,2.5846,2.5882,2.5934,2.5952,2.5916,2.6063,2.6016,2.6076,2.6076,2.6107,2.6105,2.627,2.6132,2.6131,2.6131,2.6131,0,2.5385,2.5462,2.5489,2.5543,2.5629,2.5641,2.5726,2.5753,2.5796,2.5856,2.5852,2.5909,2.5931,2.5992,2.6008,2.6097,2.6114,2.6127,2.613,2.6127,2.6125,2.6151,2.6143,2.6136,2.6135,2.6134,2.6133,0,2.5497,2.5518,2.5613,2.5663,2.5678,2.5739,2.5783,2.5837,2.5858,2.5934,2.5953,2.5987,2.6059,2.6083,2.6171,2.6181,2.6285,2.6282,2.6267,2.6268,2.6326,2.632,2.6513,2.6538,2.6384,2.6385,2.6387,0,2.5577,2.5635,2.5692,2.5731,2.576,2.5824,2.5864,2.5879,2.5923,2.5986,2.6032,2.6103,2.616,2.6276,2.631,2.6377,2.6375,2.6438,2.6385,2.638,2.6375,2.6371,2.6377,2.6447,2.6449,2.645,2.6451,0,2.5717,2.5724,2.5782,2.5844,2.5893,2.5943,2.5991,2.6024,2.6047,2.6096,2.6168,2.6212,2.6301,2.6372,2.644,2.6472,2.6466,2.6468,2.6485,2.6482,2.6471,2.6477,2.6293,2.6463,2.6462,2.6461,2.6461,2.646,2.5815,2.5866,2.5914,2.5979,2.6017,2.6062,2.6114,2.6141,2.6201,2.6273,2.6279,2.6358,2.6409,2.65,2.6535,2.6598,2.658,2.6605,2.6612,2.6618,2.6622,2.6461,2.6611,2.661,2.661,2.661,2.661,0,2.5954,2.5984,2.6044,2.6111,2.6162,2.6151,2.6204,2.6248,2.6317,2.6364,2.642,2.6504,2.6573,2.6612,2.6681,2.6724,2.6723,2.6742,2.6738,2.6745,2.6634,2.6611,2.6741,2.6741,2.6741,2.6741,2.6741,2.6741,2.6032,2.6118,2.6132,2.6237,2.6268,2.6342,2.6374,2.6416,2.6454,2.6547,2.6603,2.6628,2.6673,2.6745,2.6808,2.6818,2.6844,2.6864,2.6872,2.6767,2.6753,2.674,2.6719,2.687,2.687,2.6979,2.698,2.698]},{"header":{"parameterUnit":"m.s-1","parameterCategory":1,"la1":30.2991,"la2":30.254,"lo1":-89.0895,"lo2":-89.0444,"dy":0.0017,"dx":0.0017,"nx":28,"ny":28,"refTime":"2025-07-22T03:00:00:Z","depth":0,"parameterNumber":3,"parameterNumberName":"V-component_of_WINDS"},"data":[0,0,0,0,0,0,0,0,0,0,0,0,0,0,0,0,0,0,0,0,0,0,0,0,0,0,0,0,0,0,0,0,0,0,0,0,0,0,0,0,0,0,0,0,0,0,0,0,0,0,0,0,0,0,0,0,0,0,2.8361,2.8362,0,2.8456,2.8457,2.8458,2.8421,2.8418,2.8416,2.8414,2.8509,2.8513,2.8518,0,0,0,0,0,0,0,0,0,0,0,0,0,2.8143,2.8148,2.8361,2.8362,2.8363,2.8455,2.8457,2.8458,2.8421,2.8418,2.8416,2.8413,2.8507,2.8513,2.8518,0,0,0,0,0,0,0,0,0,0,0,0,0,2.8238,2.8149,2.8361,2.8356,2.8356,2.8455,2.8457,2.8458,2.8422,2.8418,2.8415,2.8412,2.8505,2.8512,2.8519,2.8627,0,0,2.854,2.8543,0,0,0,0,0,0,0,0,2.8233,2.8246,2.8355,2.8356,2.8357,2.8423,2.8415,2.8515,2.8422,2.8397,2.8414,2.841,2.8483,2.8491,2.8516,2.8632,2.8636,2.854,2.8545,2.8548,2.8549,0,0,0,0,0,0,0,2.8226,2.8242,2.8398,2.8357,2.8358,2.8348,2.8357,2.8433,2.8457,2.8399,2.8396,2.8408,2.8483,2.851,2.8518,2.8637,2.854,2.8546,2.8551,2.8553,2.8841,2.8845,0,0,0,0,0,0,2.822,2.8236,2.8395,2.8401,2.8286,2.8354,2.8365,2.8405,2.8456,2.8461,2.8411,2.8406,2.85,2.851,2.8521,2.8648,2.8547,2.8554,2.8558,2.8838,2.8842,2.8846,0,0,0,0,0,0,2.8215,2.8234,2.8391,2.8318,2.8337,2.8361,2.8407,2.8409,2.8436,2.8465,2.8469,2.8435,2.8497,2.8512,2.86,2.8651,2.8557,2.8563,2.8833,2.8839,2.8844,2.8905,0,0,0,0,0,0,2.8209,2.8233,2.8276,2.8319,2.8341,2.847,2.841,2.8413,2.8448,2.8443,2.8488,2.8493,2.8496,2.859,2.8607,2.8659,2.8569,2.8829,2.8836,2.8842,2.8898,2.8911,2.8923,0,0,0,0,0,2.8202,2.8289,2.8278,2.8297,2.8395,2.8473,2.8486,2.8488,2.8452,2.8494,2.8512,2.8491,2.8643,2.86,2.8618,2.8673,2.8826,2.8834,2.8842,2.8893,2.8909,2.8922,0,0,0,0,0,0,2.8251,2.8295,2.8283,2.8388,2.8427,2.8467,2.852,2.8506,2.8556,2.8549,2.8549,2.8559,2.865,2.867,2.8621,2.8778,2.8729,2.8741,2.8761,2.8777,2.8789,2.8781,2.8574,0,0,0,0,0,2.8274,2.8335,2.837,2.8459,2.8479,2.8496,2.8531,2.8529,2.8569,2.8585,2.861,2.865,2.8705,2.8742,2.8796,2.8901,2.8909,2.8948,2.896,2.897,2.8979,2.9033,2.9049,2.8872,2.8872,2.8872,0,0,2.8322,2.8354,2.8392,2.8469,2.85,2.856,2.8511,2.8578,2.8623,2.8596,2.868,2.87,2.8743,2.8839,2.8883,2.8859,2.903,2.898,2.8988,2.8992,2.9043,2.9059,2.9074,2.8877,2.8876,2.8875,0,0,2.8441,2.8472,2.8548,2.8579,2.8625,2.8636,2.8654,2.8696,2.8707,2.8792,2.8772,2.8824,2.8922,2.8953,2.8981,2.9108,2.9089,2.9125,2.9189,2.924,2.9254,2.9267,2.9309,2.9324,2.9135,2.9136,2.9136,0,2.8494,2.8587,2.8589,2.8657,2.869,2.8668,2.8743,2.8773,2.8834,2.8857,2.8829,2.8949,2.8977,2.9078,2.9109,2.9134,2.9152,2.9119,2.9253,2.9265,2.9276,2.9316,2.9333,2.9139,2.9139,2.9139,2.9138,0,2.8649,2.8713,2.8768,2.8827,2.8867,2.8938,2.8949,2.8988,2.8983,2.8995,2.908,2.9113,2.917,2.9195,2.9191,2.9295,2.9278,2.9252,2.9202,2.9297,2.9334,2.935,2.9145,2.9144,2.9142,2.9142,0,0,2.8801,2.8859,2.8879,2.8904,2.8952,2.9001,2.907,2.9127,2.9159,2.9202,2.9257,2.9339,2.9314,2.9347,2.9345,2.9391,2.9485,2.9359,2.936,2.9378,2.9598,2.9615,2.9633,2.9473,2.9476,2.9479,2.9593,0,2.8921,2.9043,2.9045,2.9156,2.9213,2.9193,2.9252,2.9287,2.93,2.9349,2.9364,2.942,2.9385,2.9403,2.9448,2.9464,2.9529,2.9456,2.9523,2.9525,2.951,2.9653,2.9673,2.9779,2.9608,2.961,2.9612,0,2.9077,2.9123,2.924,2.9277,2.9301,2.9355,2.9405,2.9454,2.9492,2.9498,2.9532,2.9523,2.9591,2.954,2.9632,2.9583,2.961,2.9622,2.9626,2.963,2.9573,2.9659,2.9814,2.9828,2.9636,2.9634,2.9632,0,2.9172,2.9264,2.9345,2.9368,2.9414,2.9451,2.9472,2.9507,2.954,2.9584,2.9604,2.9656,2.9683,2.9722,2.9726,2.9689,2.9817,2.9767,2.9821,2.9821,2.9848,2.9846,3.0006,2.987,2.987,2.9869,2.9869,0,2.9304,2.9375,2.9388,2.9438,2.9516,2.9517,2.9594,2.9612,2.9642,2.9693,2.9679,2.9726,2.973,2.9778,2.9781,2.9855,2.9868,2.9873,2.9872,2.9873,2.9872,2.9889,2.9881,2.9874,2.9873,2.9872,2.9871,0,2.9423,2.9435,2.9521,2.9557,2.9568,2.9623,2.9653,2.9699,2.971,2.9775,2.979,2.9807,2.9862,2.9871,2.9936,2.9938,3.0025,3.0019,3.0013,3.0011,3.0063,3.0057,3.0238,3.0261,3.0112,3.0114,3.0115,0,2.9505,2.9559,2.9601,2.9634,2.9657,2.9711,2.9744,2.9746,2.9781,2.9827,2.9866,2.9921,2.9964,3.0054,3.0071,3.012,3.0113,3.0173,3.012,3.0117,3.011,3.0106,3.0109,3.0182,3.0184,3.0185,3.0186,0,2.9649,2.9651,2.97,2.975,2.979,2.983,2.9867,2.9895,2.9902,2.9941,2.9998,3.0032,3.0098,3.0151,3.0199,3.0218,3.0202,3.0203,3.0217,3.0217,3.021,3.0212,3.0037,3.0198,3.0197,3.0196,3.0196,3.0195,2.975,2.9796,2.9831,2.9885,2.9914,2.9948,2.9992,3.0008,3.0056,3.011,3.0109,3.017,3.0203,3.0267,3.0289,3.0336,3.0316,3.0338,3.0343,3.0348,3.0351,3.0205,3.0345,3.0344,3.0344,3.0344,3.0344,0,2.989,2.9911,2.9961,3.0013,3.0055,3.0038,3.0077,3.0113,3.0167,3.02,3.0243,3.0306,3.0357,3.0378,3.0427,3.046,3.0454,3.0472,3.0469,3.0473,3.0368,3.0349,3.0476,3.0476,3.0476,3.0476,3.0476,3.0476,2.9967,3.0043,3.005,3.0138,3.0159,3.0219,3.0243,3.0273,3.0299,3.0371,3.0413,3.0426,3.0453,3.0504,3.0548,3.0553,3.057,3.0592,3.0593,3.0494,3.048,3.0468,3.045,3.0596,3.0596,3.0693,3.0694,3.0695]}]]